Decatur, AL

4:39 AM CDT on March 26, 2017 (GMT -0500)
Pryor Regional

Weather History for KDCU - September, 2013

Change the Weather History Date:

Tuesday, September 24, 2013

  Actual Average Record
Temperature  
Mean Temperature 66 °F -  
Max Temperature 73 °F 79 °F 97 °F (2016)
Min Temperature 60 °F 56 °F 39 °F (1990)
Cooling Degree Days 2    
Growing Degree Days 16 (Base 50)    
Moisture  
Dew Point 64 °F    
Average Humidity 87    
Maximum Humidity 94    
Minimum Humidity 78    
Precipitation  
Precipitation 0.01 in - - ()
Sea Level Pressure  
Sea Level Pressure 29.93 in    
Wind  
Wind Speed 4 mph (ESE)    
Max Wind Speed 9 mph    
Max Gust Speed -    
Visibility 8 miles    
Events Rain    
Averages and records for this station are not official NWS values.
T = Trace of Precipitation, MM = Missing Value Source: NWS Daily Summary

Daily Weather History Graph

Daily Weather History Graph

Search for Another Location

Airport or City:

Trip Planner

Search our weather history database for the weather conditions in past years. The results will help you decide how hot, cold, wet, or windy it might be!

Date:

Astronomy

Sep. 24, 2013 Rise Set
Actual Time 6:37 AM CDT 6:41 PM CDT
Civil Twilight 6:12 AM CDT 7:06 PM CDT
Nautical Twilight 5:42 AM CDT 7:35 PM CDT
Astronomical Twilight 5:13 AM CDT 8:05 PM CDT
Moon 10:11 PM CDT (9/24) 11:39 AM CDT (9/24)
Length of Visible Light 12h 54m
Length of Day
12h 03m
Waning Gibbous, 73% of the Moon is Illuminated
Sep 24
Waning Gibbous
Sep 26
Last Quarter
Oct 4
New
Oct 11
First Quarter
Oct 18
Full

Hourly Weather History & Observations

Time (CDT) Temp. Dew Point Humidity Pressure Visibility Wind Dir Wind Speed Gust Speed Precip Events Conditions
12:53 AM 64.0 °F 60.1 °F 87% 29.95 in 10.0 mi East 3.5 mph - N/A   Clear
1:53 AM 61.0 °F 59.0 °F 93% 29.96 in 10.0 mi East 3.5 mph - N/A   Clear
2:53 AM 63.0 °F 60.1 °F 90% 29.96 in 10.0 mi East 3.5 mph - N/A   Clear
3:31 AM 60.8 °F 59.0 °F 94% 29.98 in 9.0 mi Calm Calm - N/A   Mostly Cloudy
3:53 AM 64.0 °F 61.0 °F 90% 29.96 in 10.0 mi ESE 4.6 mph - N/A   Overcast
4:53 AM 64.9 °F 62.1 °F 90% 29.97 in 9.0 mi East 3.5 mph - N/A   Overcast
5:53 AM 64.9 °F 62.1 °F 90% 29.97 in 9.0 mi Calm Calm - N/A   Overcast
6:53 AM 66.0 °F 63.0 °F 90% 29.98 in 7.0 mi Calm Calm - N/A   Overcast
7:53 AM 66.0 °F 64.0 °F 93% 29.97 in 5.0 mi Calm Calm - N/A   Overcast
8:21 AM 66.2 °F 64.4 °F 94% 29.99 in 3.0 mi East 5.8 mph - N/A   Overcast
8:34 AM 66.2 °F 64.4 °F 94% 29.99 in 3.0 mi East 5.8 mph - N/A   Overcast
8:53 AM 68.0 °F 64.9 °F 90% 29.98 in 4.0 mi East 6.9 mph - N/A   Overcast
9:14 AM 68.0 °F 64.4 °F 88% 29.98 in 3.0 mi East 8.1 mph - N/A   Overcast
9:26 AM 68.0 °F 64.4 °F 88% 29.99 in 3.0 mi East 5.8 mph - N/A   Overcast
9:53 AM 69.1 °F 64.9 °F 87% 29.98 in 7.0 mi East 9.2 mph - N/A   Overcast
10:32 AM 71.6 °F 64.4 °F 78% 29.98 in 8.0 mi ESE 8.1 mph - N/A   Overcast
10:53 AM 71.1 °F 64.9 °F 81% 29.96 in 9.0 mi ESE 8.1 mph - N/A   Overcast
11:46 AM 73.4 °F 66.2 °F 78% 29.97 in 10.0 mi SE 8.1 mph - N/A   Overcast
11:53 AM 72.0 °F 66.0 °F 81% 29.96 in 10.0 mi SE 6.9 mph - N/A   Overcast
12:53 PM 73.9 °F 66.9 °F 79% 29.94 in 10.0 mi ESE 8.1 mph - N/A   Overcast
1:53 PM 73.0 °F 66.0 °F 79% 29.91 in 10.0 mi East 9.2 mph - N/A   Overcast
2:53 PM 72.0 °F 66.0 °F 81% 29.91 in 10.0 mi SE 6.9 mph - N/A   Overcast
3:53 PM 72.0 °F 66.0 °F 81% 29.87 in 8.0 mi ESE 4.6 mph - N/A   Overcast
4:34 PM 71.6 °F 66.2 °F 83% 29.89 in 8.0 mi ESE 6.9 mph - N/A   Overcast
4:53 PM 71.1 °F 66.0 °F 84% 29.88 in 8.0 mi SE 5.8 mph - N/A   Overcast
5:53 PM 71.1 °F 66.0 °F 84% 29.86 in 8.0 mi East 6.9 mph - N/A   Overcast
6:53 PM 70.0 °F 64.9 °F 84% 29.85 in 8.0 mi ESE 6.9 mph - N/A   Overcast
7:53 PM 69.1 °F 64.9 °F 87% 29.87 in 9.0 mi ESE 4.6 mph - 0.00 in Rain Light Rain
8:53 PM 68.0 °F 64.9 °F 90% 29.87 in 10.0 mi East 4.6 mph - 0.01 in   Overcast
9:53 PM 68.0 °F 64.9 °F 90% 29.87 in 9.0 mi ESE 3.5 mph - N/A   Overcast
10:53 PM 68.0 °F 64.0 °F 87% 29.86 in 8.0 mi ESE 4.6 mph - N/A   Overcast
11:42 PM 66.2 °F 64.4 °F 94% 29.87 in 7.0 mi SE 3.5 mph - N/A   Overcast
11:53 PM 66.9 °F 64.0 °F 90% 29.85 in 7.0 mi ESE 3.5 mph - N/A   Overcast